FW0237 Tampa FL US current weather conditions

sailwx.info

Wind from 118 at 3 knots gusting 8

Air temperature 5.6° C
Dewpoint 2.9° C

Last reported at 2019-Mar-19 01:07 UTC.
Time now 2019-Mar-19 01:32 UTC

Location: N 27°52' W 082°31'.
View on Google Maps.

See reports from other nearby stations

  
Tides and Currents Weather Stations Pressure Air Temp Water Temp Dewpoint Dewpoint Depression Visibility Wind Speed Wind Dir Waves Ship Positions
date/time (UTC)wind fromknots sea level pressurealtimeterstation pressurevisibilityair tempwater tempwave heightnotes
2019-Mar-19 01:07 118 3 gusting 8 5.6
2019-Mar-19 01:02 101 3 gusting 8 5.6
2019-Mar-19 00:57 148 3 gusting 7 5.6
2019-Mar-19 00:52 082 1 gusting 7 5.6
2019-Mar-19 00:47 051 0 gusting 6 5.6
2019-Mar-19 00:42 176 0 gusting 3 5.6
2019-Mar-19 00:37 012 0 gusting 6 5.6
2019-Mar-19 00:32 132 2 gusting 8 5.6
2019-Mar-19 00:27 307 4 gusting 10 5.6
2019-Mar-19 00:22 350 4 gusting 10 5.6
2019-Mar-19 00:17 295 4 gusting 13 5.6
2019-Mar-19 00:12 331 5 gusting 13 6.1
2019-Mar-19 00:07 031 6 gusting 15 6.1
2019-Mar-19 00:02 350 6 gusting 15 6.1
2019-Mar-18 23:57 329 6 gusting 13 6.1
2019-Mar-18 23:52 039 5 gusting 13 6.7
2019-Mar-18 23:47 055 5 gusting 11 6.7
2019-Mar-18 23:42 009 5 gusting 12 6.7
2019-Mar-18 23:37 312 5 gusting 12 6.7
2019-Mar-18 23:32 070 4 gusting 13 6.7
2019-Mar-18 23:27 339 3 gusting 13 6.7
2019-Mar-18 23:22 298 3 gusting 9 6.7
2019-Mar-18 23:17 045 5 gusting 12 6.7
2019-Mar-18 23:12 018 5 gusting 12 6.7
2019-Mar-18 23:07 337 5 gusting 12 6.7
2019-Mar-18 23:02 044 5 gusting 12 6.7
2019-Mar-18 22:57 308 4 gusting 10 6.7
2019-Mar-18 22:52 346 3 gusting 9 6.7
2019-Mar-18 22:47 337 3 gusting 8 6.7
2019-Mar-18 22:42 323 3 gusting 8 6.1
2019-Mar-18 22:37 074 1 gusting 5 6.1
2019-Mar-18 22:32 341 1 gusting 6 6.1
2019-Mar-18 22:27 043 1 gusting 6 6.1
2019-Mar-18 22:22 012 2 gusting 8 6.1
2019-Mar-18 22:17 028 3 gusting 8 6.7
2019-Mar-18 22:12 346 1 gusting 6 6.7
2019-Mar-18 22:07 331 1 gusting 7 6.7
2019-Mar-18 22:02 311 1 gusting 7 6.7
2019-Mar-18 21:57 338 0 gusting 7 7.2
2019-Mar-18 21:52 130 1 gusting 6 7.2
2019-Mar-18 21:47 071 2 gusting 9 7.2
2019-Mar-18 21:42 290 2 gusting 9 7.8
2019-Mar-18 21:37 275 2 gusting 8 7.8
2019-Mar-18 21:32 266 2 gusting 9 8.3
2019-Mar-18 21:27 355 2 gusting 9 8.3
2019-Mar-18 21:22 013 1 gusting 8 8.3
2019-Mar-18 21:17 071 1 gusting 8 8.3
2019-Mar-18 21:15 302 3 gusting 11 8.3
2019-Mar-18 21:07 153 3 gusting 11 8.3
2019-Mar-18 21:02 284 2 gusting 11 8.3
2019-Mar-18 20:57 246 2 gusting 11 8.3
2019-Mar-18 20:52 038 1 gusting 10 8.3
2019-Mar-18 20:50 115 1 gusting 6 8.3
2019-Mar-18 20:07 085 3 gusting 11 8.9
2019-Mar-18 20:02 078 3 gusting 11 8.9
2019-Mar-18 19:57 105 4 gusting 10 8.9
2019-Mar-18 19:52 060 5 gusting 10 8.9
2019-Mar-18 19:47 071 3 gusting 9 8.9
2019-Mar-18 19:42 128 2 gusting 7 9.4
2019-Mar-18 19:37 082 3 gusting 10 9.4
2019-Mar-18 19:32 127 3 gusting 10 10.0
2019-Mar-18 19:27 100 3 gusting 9 10.0
2019-Mar-18 19:22 129 4 gusting 9 10.0
2019-Mar-18 19:17 056 4 gusting 9 9.4
2019-Mar-18 19:12 089 5 gusting 12 9.4
2019-Mar-18 19:07 019 5 gusting 12 9.4
2019-Mar-18 19:02 108 3 gusting 10 10.0
2019-Mar-18 18:57 106 3 gusting 10 10.0
2019-Mar-18 18:52 082 4 gusting 10 10.0
2019-Mar-18 18:47 115 3 gusting 10 10.6
2019-Mar-18 18:42 045 3 gusting 13 10.6
2019-Mar-18 18:37 051 3 gusting 13 10.6
2019-Mar-18 18:32 048 2 gusting 13 10.6
2019-Mar-18 18:27 173 2 gusting 8 10.6
2019-Mar-18 18:22 110 3 gusting 11 10.6
2019-Mar-18 18:17 315 3 gusting 11 10.6
2019-Mar-18 18:12 172 4 gusting 11 10.6
2019-Mar-18 18:07 155 5 gusting 14 10.0
2019-Mar-18 18:02 074 5 gusting 14 10.6
2019-Mar-18 17:57 096 6 gusting 12 10.0
2019-Mar-18 17:52 069 6 gusting 14 10.0
2019-Mar-18 17:47 079 4 gusting 14 10.6
2019-Mar-18 17:42 136 3 gusting 11 11.1
2019-Mar-18 17:37 069 4 gusting 11 11.1
2019-Mar-18 17:32 135 4 gusting 10 11.1
2019-Mar-18 17:27 131 3 gusting 13 11.7
2019-Mar-18 17:22 344 3 gusting 13 11.7
2019-Mar-18 17:17 073 3 gusting 7 11.7
2019-Mar-18 17:12 203 3 gusting 10 11.1
2019-Mar-18 17:07 130 3 gusting 10 11.1
2019-Mar-18 17:02 286 2 gusting 8 11.7
2019-Mar-18 16:57 091 1 gusting 10 11.7
2019-Mar-18 16:52 090 1 gusting 10 11.7
2019-Mar-18 16:47 096 1 gusting 6 12.2
2019-Mar-18 16:42 104 2 gusting 6 12.2
2019-Mar-18 16:37 061 1 gusting 6 12.2
2019-Mar-18 16:32 087 1 gusting 7 12.2
2019-Mar-18 16:27 169 2 gusting 7 11.7
2019-Mar-18 16:22 057 3 gusting 7 11.7
2019-Mar-18 16:17 069 2 gusting 7 11.7
2019-Mar-18 16:12 056 1 gusting 6 12.8
2019-Mar-18 16:07 103 2 gusting 9 12.2
2019-Mar-18 16:02 078 2 gusting 9 12.2
2019-Mar-18 15:57 065 1 gusting 8 12.2
2019-Mar-18 15:52 069 1 gusting 8 11.7
2019-Mar-18 15:47 071 1 gusting 6 11.7
2019-Mar-18 15:42 090 1 gusting 6 12.2
2019-Mar-18 15:37 080 2 gusting 6 11.7
2019-Mar-18 15:32 087 1 gusting 6 11.7
2019-Mar-18 15:27 084 1 gusting 7 12.2
2019-Mar-18 15:22 064 2 gusting 7 12.2
2019-Mar-18 15:17 101 2 gusting 7 12.2
2019-Mar-18 15:12 061 1 gusting 7 12.8
2019-Mar-18 15:07 148 1 gusting 6 12.2
2019-Mar-18 15:02 069 2 gusting 6 11.7
2019-Mar-18 14:57 057 1 gusting 7 11.7
2019-Mar-18 14:52 085 2 gusting 8 11.7
2019-Mar-18 14:47 005 3 gusting 10 11.7
2019-Mar-18 14:42 061 1 gusting 10 11.7
2019-Mar-18 14:37 163 1 gusting 8 12.2
2019-Mar-18 14:32 080 2 gusting 9 11.1
2019-Mar-18 14:27 049 1 gusting 9 11.1
2019-Mar-18 14:22 044 1 gusting 6 11.1
2019-Mar-18 14:17 069 1 gusting 6 11.1
2019-Mar-18 14:12 106 1 gusting 7 11.1
2019-Mar-18 14:07 059 3 gusting 7 10.6
2019-Mar-18 14:02 066 2 gusting 7 10.6
2019-Mar-18 13:57 090 1 gusting 6 10.0
2019-Mar-18 13:52 107 1 gusting 6 10.0
2019-Mar-18 13:47 055 0 gusting 6 10.0
2019-Mar-18 13:42 110 0 gusting 6 9.4
2019-Mar-18 13:37 105 1 gusting 6 9.4
2019-Mar-18 13:32 062 2 gusting 6 8.9
2019-Mar-18 13:27 063 2 gusting 7 8.9
2019-Mar-18 13:22 065 2 gusting 7 8.9
2019-Mar-18 13:17 066 1 gusting 5 8.9
2019-Mar-18 13:12 086 1 gusting 6 8.9
2019-Mar-18 13:07 090 2 gusting 6 8.3
2019-Mar-18 13:02 063 2 gusting 6 8.3
2019-Mar-18 12:57 126 1 gusting 6 8.3
2019-Mar-18 12:52 078 1 gusting 6 7.8
2019-Mar-18 12:47 076 1 gusting 6 7.8
2019-Mar-18 12:42 076 0 gusting 3 7.8
2019-Mar-18 12:37 082 0 gusting 3 7.8
2019-Mar-18 12:32 093 0 gusting 3 7.8
2019-Mar-18 12:27 078 7.2
2019-Mar-18 12:21 087 7.2
2019-Mar-18 12:16 087 0 gusting 3 7.2
2019-Mar-18 12:12 084 0 gusting 3 6.7
2019-Mar-18 12:06 074 6.7
2019-Mar-18 12:01 138 6.1
2019-Mar-18 11:57 138 6.1
2019-Mar-18 11:51 138 5.6
2019-Mar-18 11:47 138 5.6
2019-Mar-18 11:41 138 5.6
2019-Mar-18 11:37 138 5.6
2019-Mar-18 11:32 138 5.6
2019-Mar-18 11:26 138 5.0
2019-Mar-18 11:21 138 5.0
2019-Mar-18 11:16 138 5.0
2019-Mar-18 11:11 138 5.0
2019-Mar-18 11:06 138 5.0
2019-Mar-18 11:01 138 4.4
2019-Mar-18 10:56 138 4.4
2019-Mar-18 10:51 138 4.4
2019-Mar-18 10:46 138 4.4
2019-Mar-18 10:42 138 4.4
2019-Mar-18 10:36 138 4.4
2019-Mar-18 10:31 138 4.4
2019-Mar-18 10:26 138 4.4
2019-Mar-18 10:21 138 4.4
2019-Mar-18 10:16 138 4.4
2019-Mar-18 10:11 138 4.4
2019-Mar-18 10:06 138 4.4
2019-Mar-18 10:01 140 4.4
2019-Mar-18 09:56 140 4.4
2019-Mar-18 09:51 140 4.4
2019-Mar-18 09:46 140 4.4
2019-Mar-18 09:41 140 3.9
2019-Mar-18 09:36 140 4.4
2019-Mar-18 09:31 142 4.4
2019-Mar-18 09:26 146 4.4
2019-Mar-18 09:21 161 4.4
2019-Mar-18 09:16 160 3.9
2019-Mar-18 09:11 154 3.9
2019-Mar-18 09:06 168 3.9
2019-Mar-18 09:01 168 3.9
2019-Mar-18 08:56 168 3.9
2019-Mar-18 08:51 168 3.9
2019-Mar-18 08:46 168 3.9
2019-Mar-18 08:41 168 4.4
2019-Mar-18 08:36 168 4.4
2019-Mar-18 08:31 171 4.4
2019-Mar-18 08:26 171 4.4
2019-Mar-18 08:21 169 3.9
2019-Mar-18 08:16 169 3.9
2019-Mar-18 08:11 169 4.4
2019-Mar-18 08:06 169 4.4
2019-Mar-18 08:01 169 4.4
2019-Mar-18 07:56 169 4.4
2019-Mar-18 07:51 169 4.4
2019-Mar-18 07:46 169 4.4
2019-Mar-18 07:41 169 4.4
2019-Mar-18 07:36 169 4.4
2019-Mar-18 07:31 169 4.4
2019-Mar-18 07:26 169 4.4
2019-Mar-18 07:21 169 4.4
2019-Mar-18 07:16 169 4.4
2019-Mar-18 07:11 169 4.4
2019-Mar-18 07:06 169 4.4
2019-Mar-18 07:01 169 4.4
2019-Mar-18 06:56 169 4.4
2019-Mar-18 06:51 169 4.4
2019-Mar-18 06:46 169 4.4
2019-Mar-18 06:41 169 4.4
2019-Mar-18 06:36 169 4.4
2019-Mar-18 06:31 169 4.4
2019-Mar-18 06:26 169 4.4
2019-Mar-18 06:21 169 4.4
2019-Mar-18 06:16 169 4.4
2019-Mar-18 06:11 169 4.4
2019-Mar-18 06:06 169 5.0
2019-Mar-18 06:01 171 5.0
2019-Mar-18 05:56 171 5.0
2019-Mar-18 05:51 171 5.0
2019-Mar-18 05:46 171 5.0
2019-Mar-18 05:41 171 5.0
2019-Mar-18 05:36 171 5.0
2019-Mar-18 05:31 171 5.0
2019-Mar-18 05:26 171 5.6
2019-Mar-18 05:21 171 5.6
2019-Mar-18 05:16 170 5.6
2019-Mar-18 05:11 170 5.6
2019-Mar-18 05:06 167 5.6
2019-Mar-18 05:01 146 5.6
2019-Mar-18 04:56 153 5.6
2019-Mar-18 04:51 152 5.6
2019-Mar-18 04:46 164 5.6
2019-Mar-18 04:41 181 5.6
2019-Mar-18 04:36 190 5.6
2019-Mar-18 04:31 123 5.6
2019-Mar-18 04:26 125 5.6
2019-Mar-18 04:21 125 5.6
2019-Mar-18 04:16 181 5.6
2019-Mar-18 04:11 074 5.6
2019-Mar-18 04:06 198 5.6
2019-Mar-18 04:01 198 5.6
2019-Mar-18 03:56 198 5.6
2019-Mar-18 03:51 198 5.6
2019-Mar-18 03:46 223 5.6
2019-Mar-18 03:41 175 5.6
2019-Mar-18 03:36 133 5.6
2019-Mar-18 03:31 177 5.6
2019-Mar-18 03:26 222 5.6
2019-Mar-18 03:21 186 5.6
2019-Mar-18 03:16 180 5.6
2019-Mar-18 03:11 180 5.6
2019-Mar-18 03:06 180 5.6
2019-Mar-18 03:01 180 5.6
2019-Mar-18 02:56 181 5.6
2019-Mar-18 02:51 181 5.6
2019-Mar-18 02:46 150 6.1
2019-Mar-18 02:41 132 6.1
2019-Mar-18 02:36 132 6.1
2019-Mar-18 02:31 134 6.1
2019-Mar-18 02:26 202 6.1
2019-Mar-18 02:21 157 6.1
2019-Mar-18 02:16 087 6.1
2019-Mar-18 02:11 087 6.1
2019-Mar-18 02:06 100 6.1
2019-Mar-18 02:01 101 6.1
2019-Mar-18 01:56 102 6.1
2019-Mar-18 01:51 102 6.1
2019-Mar-18 01:46 160 6.1
2019-Mar-18 01:41 157 6.1
2019-Mar-18 01:36 157 6.1
2019-Mar-18 01:31 157 6.1
2019-Mar-18 01:26 157 6.1
2019-Mar-18 01:21 155 6.7
2019-Mar-18 01:16 155 6.7
2019-Mar-18 01:11 171 6.7
2019-Mar-18 01:06 171 6.7
2019-Mar-18 01:01 171 6.7
2019-Mar-18 00:56 174 6.7
2019-Mar-18 00:51 178 6.7
2019-Mar-18 00:46 178 6.7
2019-Mar-18 00:41 178 6.7
2019-Mar-18 00:36 167 6.7
2019-Mar-18 00:31 163 7.2
2019-Mar-18 00:26 159 7.2
2019-Mar-18 00:21 150 7.2
2019-Mar-18 00:16 147 7.2
2019-Mar-18 00:11 119 7.2
2019-Mar-18 00:06 119 7.2
2019-Mar-18 00:01 105 7.8
2019-Mar-17 23:56 106 7.8
2019-Mar-17 23:51 106 7.8
2019-Mar-17 23:46 111 7.8
2019-Mar-17 23:41 126 7.8
2019-Mar-17 23:36 185 8.3
2019-Mar-17 23:31 113 8.3
2019-Mar-17 23:26 113 0 gusting 6 8.3
2019-Mar-17 23:21 100 0 gusting 6 8.3
2019-Mar-17 23:16 202 8.3
2019-Mar-17 23:11 203 8.3
2019-Mar-17 23:06 150 8.9
2019-Mar-17 23:01 204 0 gusting 3 8.9
2019-Mar-17 22:56 165 0 gusting 6 8.9
2019-Mar-17 22:51 117 0 gusting 6 8.9
2019-Mar-17 22:46 096 0 gusting 3 9.4
2019-Mar-17 22:41 069 0 gusting 5 9.4
2019-Mar-17 22:36 082 0 gusting 6 9.4
2019-Mar-17 22:31 104 0 gusting 6 9.4
2019-Mar-17 22:26 101 0 gusting 6 9.4
2019-Mar-17 22:21 227 1 gusting 5 9.4
2019-Mar-17 22:16 091 0 gusting 5 9.4
2019-Mar-17 22:11 078 0 gusting 5 9.4
2019-Mar-17 22:06 198 0 gusting 3 10.0
2019-Mar-17 22:01 090 0 gusting 4 9.4
2019-Mar-17 21:56 209 0 gusting 4 10.0
2019-Mar-17 21:51 170 0 gusting 2 10.0
2019-Mar-17 21:46 088 0 gusting 4 10.0
2019-Mar-17 21:41 102 0 gusting 6 10.0
2019-Mar-17 21:36 143 0 gusting 6 10.0
2019-Mar-17 21:31 128 2 gusting 10 10.0
2019-Mar-17 21:26 174 2 gusting 10 10.0
2019-Mar-17 21:21 065 0 gusting 7 10.0
2019-Mar-17 21:16 099 0 gusting 6 10.0
2019-Mar-17 21:11 165 1 gusting 6 10.0
2019-Mar-17 21:06 108 0 gusting 3 10.6
2019-Mar-17 21:01 144 0 gusting 2 10.6
2019-Mar-17 20:56 129 0 gusting 3 10.6
2019-Mar-17 20:51 090 0 gusting 3 10.6
2019-Mar-17 20:46 081 1 gusting 6 10.0
2019-Mar-17 20:41 077 2 gusting 7 10.6
2019-Mar-17 20:36 071 2 gusting 7 10.0
2019-Mar-17 20:31 121 1 gusting 6 10.6
2019-Mar-17 20:26 126 1 gusting 3 10.6
2019-Mar-17 20:21 130 1 gusting 6 10.6
2019-Mar-17 20:16 072 1 gusting 7 10.0
2019-Mar-17 20:11 066 2 gusting 7 10.6
2019-Mar-17 20:06 044 2 gusting 7 10.6
2019-Mar-17 20:01 086 2 gusting 8 10.6
2019-Mar-17 19:56 067 3 gusting 8 10.0
2019-Mar-17 19:51 110 2 gusting 7 10.0
2019-Mar-17 19:46 051 2 gusting 7 10.0
2019-Mar-17 19:41 107 2 gusting 6 10.0
2019-Mar-17 19:36 075 1 gusting 6 10.0
2019-Mar-17 19:31 065 1 gusting 6 10.6
2019-Mar-17 19:26 055 1 gusting 6 10.0
2019-Mar-17 19:21 024 1 gusting 9 10.0
2019-Mar-17 19:16 078 1 gusting 9 10.0
2019-Mar-17 19:11 175 1 gusting 6 10.6
2019-Mar-17 19:06 065 1 gusting 9 10.6
2019-Mar-17 19:01 027 2 gusting 9 10.6
2019-Mar-17 18:56 331 1 gusting 4 10.0
2019-Mar-17 18:51 341 0 gusting 4 10.6
2019-Mar-17 18:46 110 1 gusting 6 10.0
2019-Mar-17 18:41 163 1 gusting 6 9.4
2019-Mar-17 18:36 064 1 gusting 6 10.0
2019-Mar-17 18:31 053 1 gusting 5 9.4
2019-Mar-17 18:25 054 1 gusting 5 10.0
2019-Mar-17 18:21 097 2 gusting 6 9.4
2019-Mar-17 18:15 085 2 gusting 9 9.4
2019-Mar-17 18:10 087 2 gusting 9 9.4
2019-Mar-17 18:05 071 2 gusting 6 9.4
2019-Mar-17 18:00 081 1 gusting 7 8.9
2019-Mar-17 17:55 087 2 gusting 7 8.9
2019-Mar-17 17:50 351 2 gusting 6 8.9
2019-Mar-17 17:45 013 2 gusting 6 8.9
2019-Mar-17 17:40 061 4 gusting 9 9.4
2019-Mar-17 17:35 092 3 gusting 9 8.9
2019-Mar-17 17:30 075 2 gusting 9 10.0
2019-Mar-17 17:25 066 1 gusting 6 9.4
2019-Mar-17 17:20 104 1 gusting 6 10.0
2019-Mar-17 17:15 105 1 gusting 5 9.4
2019-Mar-17 17:10 028 1 gusting 6 9.4
2019-Mar-17 17:05 039 2 gusting 6 9.4
2019-Mar-17 17:00 074 1 gusting 6 8.9
2019-Mar-17 16:55 058 1 gusting 5 8.9
2019-Mar-17 16:50 355 1 gusting 7 8.9
2019-Mar-17 16:45 086 2 gusting 7 8.9
2019-Mar-17 16:40 128 2 gusting 8 8.3
2019-Mar-17 16:35 028 2 gusting 8 8.3
2019-Mar-17 16:30 349 1 gusting 6 8.3
2019-Mar-17 16:25 324 0 gusting 3 8.9
2019-Mar-17 16:20 319 1 gusting 6 8.9
2019-Mar-17 16:15 340 2 gusting 7 8.3
2019-Mar-17 16:10 323 1 gusting 7 8.9
2019-Mar-17 16:05 336 0 gusting 6 8.9
2019-Mar-17 16:00 090 1 gusting 6 8.3
2019-Mar-17 15:55 269 1 gusting 6 8.3
2019-Mar-17 15:50 011 1 gusting 7 8.9
2019-Mar-17 15:45 065 2 gusting 7 9.4
2019-Mar-17 15:40 313 2 gusting 6 8.9
2019-Mar-17 15:35 005 1 gusting 6 8.9
2019-Mar-17 15:30 015 1 gusting 6 9.4
2019-Mar-17 15:25 295 2 gusting 7 8.9
2019-Mar-17 15:20 098 2 gusting 7 8.3
2019-Mar-17 15:15 068 2 gusting 7 8.3
2019-Mar-17 15:10 175 2 gusting 6 8.3
2019-Mar-17 15:05 103 2 gusting 6 8.3
2019-Mar-17 15:00 332 1 gusting 6 8.3
2019-Mar-17 14:55 328 1 gusting 5 8.9
2019-Mar-17 14:50 140 1 gusting 5 8.3
2019-Mar-17 14:45 065 1 gusting 5 8.3
2019-Mar-17 14:40 074 2 gusting 5 8.3
2019-Mar-17 14:35 068 3 gusting 8 8.3
2019-Mar-17 14:30 088 3 gusting 8 8.3
2019-Mar-17 14:25 078 2 gusting 7 7.8
2019-Mar-17 14:20 100 1 gusting 6 8.3
2019-Mar-17 14:15 024 1 gusting 6 8.3
2019-Mar-17 14:10 103 2 gusting 6 7.8
2019-Mar-17 14:05 076 2 gusting 6 7.8
2019-Mar-17 14:00 061 2 gusting 6 7.8
2019-Mar-17 13:55 057 2 gusting 6 7.8
2019-Mar-17 13:50 063 1 gusting 5 7.8
2019-Mar-17 13:45 080 2 gusting 9 7.8
2019-Mar-17 13:40 101 2 gusting 9 7.8
2019-Mar-17 13:35 109 1 gusting 7 7.8
2019-Mar-17 13:30 082 2 gusting 7 7.8
2019-Mar-17 13:25 044 2 gusting 6 7.8
2019-Mar-17 13:20 079 1 gusting 6 7.8
2019-Mar-17 13:15 114 1 gusting 6 7.8
2019-Mar-17 13:10 069 2 gusting 6 7.2
2019-Mar-17 13:05 097 1 gusting 6 7.2
2019-Mar-17 13:00 084 1 gusting 6 7.2
2019-Mar-17 12:55 250 1 gusting 4 7.2
2019-Mar-17 12:50 067 1 gusting 5 7.2
2019-Mar-17 12:45 349 1 gusting 5 7.2
2019-Mar-17 12:40 355 1 gusting 6 6.7
2019-Mar-17 12:35 327 2 gusting 6 6.7
2019-Mar-17 12:30 333 2 gusting 9 6.7
2019-Mar-17 12:25 021 1 gusting 9 6.7
2019-Mar-17 12:20 348 2 gusting 6 6.7
2019-Mar-17 12:15 044 2 gusting 6 6.7
2019-Mar-17 12:10 325 1 gusting 4 6.7
2019-Mar-17 12:05 005 2 gusting 7 6.7
2019-Mar-17 12:00 335 2 gusting 7 6.1
2019-Mar-17 11:55 051 2 gusting 8 6.1
2019-Mar-17 11:50 342 2 gusting 8 6.1
2019-Mar-17 11:45 350 2 gusting 7 6.1
2019-Mar-17 11:40 319 2 gusting 7 6.1
2019-Mar-17 11:35 168 2 gusting 7 6.1
2019-Mar-17 11:30 345 2 gusting 6 6.1
2019-Mar-17 11:25 074 1 gusting 7 6.1
2019-Mar-17 11:20 116 1 gusting 7 6.1
2019-Mar-17 11:15 6.1
2019-Mar-17 11:10 328 1 gusting 6 6.1
2019-Mar-17 11:05 329 1 gusting 6 6.7
2019-Mar-17 11:00 005 1 gusting 5 6.7
2019-Mar-17 10:55 320 0 gusting 6 6.7
2019-Mar-17 10:50 035 1 gusting 7 6.7
2019-Mar-17 10:45 005 1 gusting 7 6.7
2019-Mar-17 10:40 049 0 gusting 5 6.7
2019-Mar-17 10:35 322 0 gusting 4 6.7
2019-Mar-17 10:30 074 0 gusting 3 6.7
2019-Mar-17 10:25 121 0 gusting 3 6.7
2019-Mar-17 10:20 028 0 gusting 2 6.7
2019-Mar-17 10:15 048 0 gusting 4 6.7
2019-Mar-17 10:10 061 1 gusting 5 6.7
2019-Mar-17 10:05 307 1 gusting 6 6.7
2019-Mar-17 10:00 321 1 gusting 7 6.7
2019-Mar-17 09:55 329 2 gusting 7 6.7
2019-Mar-17 09:50 355 2 gusting 6 6.7
2019-Mar-17 09:45 319 1 gusting 6 6.7
2019-Mar-17 09:40 330 1 gusting 4 6.7
2019-Mar-17 09:35 005 1 gusting 4 6.7
2019-Mar-17 09:30 005 2 gusting 7 6.7
2019-Mar-17 09:25 346 2 gusting 7 7.2
2019-Mar-17 09:20 338 2 gusting 6 7.2
2019-Mar-17 09:15 051 1 gusting 6 7.2
2019-Mar-17 09:10 343 1 gusting 5 7.2
2019-Mar-17 09:05 020 0 gusting 3 7.2
2019-Mar-17 09:00 335 0 gusting 5 7.2
2019-Mar-17 08:55 327 1 gusting 6 7.2
2019-Mar-17 08:50 313 1 gusting 6 7.2
2019-Mar-17 08:45 005 1 gusting 6 7.2
2019-Mar-17 08:40 170 1 gusting 6 7.2
2019-Mar-17 08:35 179 2 gusting 7 7.2
2019-Mar-17 08:30 036 2 gusting 7 7.2
2019-Mar-17 08:25 094 1 gusting 6 7.2
2019-Mar-17 08:20 289 1 gusting 7 7.2
2019-Mar-17 08:15 081 1 gusting 7 7.2
2019-Mar-17 08:10 304 0 gusting 3 7.2
2019-Mar-17 08:05 059 0 gusting 3 7.2
2019-Mar-17 08:00 283 0 gusting 6 7.2
2019-Mar-17 07:55 086 0 gusting 6 7.2
2019-Mar-17 07:50 217 7.2
2019-Mar-17 07:45 068 0 gusting 3 7.2
2019-Mar-17 07:40 060 0 gusting 3 7.2
2019-Mar-17 07:35 109 0 gusting 6 7.2
2019-Mar-17 07:30 355 0 gusting 6 7.2
2019-Mar-17 07:20 095 1 gusting 6 7.8
2019-Mar-17 07:10 034 1 gusting 7 7.8
2019-Mar-17 07:05 350 1 gusting 8 7.8
2019-Mar-17 07:00 088 2 gusting 8 7.8
2019-Mar-17 06:50 123 2 gusting 7 7.8
2019-Mar-17 06:45 066 1 gusting 6 7.8
2019-Mar-17 06:40 146 1 gusting 8 7.8
2019-Mar-17 06:30 084 2 gusting 11 8.3
2019-Mar-17 06:25 065 1 gusting 7 7.8
2019-Mar-17 06:20 078 0 gusting 3 7.8
2019-Mar-17 06:15 334 0 gusting 6 7.8
2019-Mar-17 06:10 338 1 gusting 7 7.8
2019-Mar-17 06:05 091 1 gusting 7 8.3
2019-Mar-17 06:00 050 1 gusting 8 7.8
2019-Mar-17 05:55 306 1 gusting 8 7.8
2019-Mar-17 05:50 333 0 gusting 2 7.8
2019-Mar-17 05:45 089 7.8
2019-Mar-17 05:40 091 7.8
2019-Mar-17 05:35 090 7.8
2019-Mar-17 05:30 088 7.8
2019-Mar-17 05:25 088 0 gusting 3 7.8
2019-Mar-17 05:20 092 0 gusting 3 7.8
2019-Mar-17 05:15 085 8.3
2019-Mar-17 05:10 079 0 gusting 4 7.8
2019-Mar-17 05:05 336 0 gusting 5 8.3
2019-Mar-17 05:00 345 0 gusting 5 7.8
2019-Mar-17 04:55 137 0 gusting 3 7.8
2019-Mar-17 04:50 132 1 gusting 6 8.3
2019-Mar-17 04:45 331 1 gusting 6 7.8
2019-Mar-17 04:40 260 2 gusting 8 7.8
2019-Mar-17 04:35 338 1 gusting 8 7.8
2019-Mar-17 04:30 055 7.8
2019-Mar-17 04:25 174 7.8
2019-Mar-17 04:20 174 7.8
2019-Mar-17 04:15 174 7.8
2019-Mar-17 04:10 174 7.8
2019-Mar-17 04:05 174 8.3
2019-Mar-17 04:00 174 8.3
2019-Mar-17 03:55 183 8.3
2019-Mar-17 03:50 187 8.3
2019-Mar-17 03:45 187 8.3
2019-Mar-17 03:40 182 0 gusting 4 8.3
2019-Mar-17 03:35 177 8.3
2019-Mar-17 03:30 182 8.9
2019-Mar-17 03:25 190 8.9
2019-Mar-17 03:20 175 0 gusting 6 8.9
2019-Mar-17 03:15 170 0 gusting 6 8.9
2019-Mar-17 03:10 172 8.9
2019-Mar-17 03:05 181 8.9
2019-Mar-17 02:59 181 8.9
2019-Mar-17 02:54 181 0 gusting 5 8.9
2019-Mar-17 02:49 138 0 gusting 4 8.9
2019-Mar-17 02:44 196 0 gusting 4 8.9
2019-Mar-17 02:39 171 0 gusting 4 8.9
2019-Mar-17 02:35 207 8.9
2019-Mar-17 02:30 176 8.9
2019-Mar-17 02:24 177 8.9
2019-Mar-17 02:20 177 8.9
2019-Mar-17 02:14 177 8.9
2019-Mar-17 02:09 180 9.4
2019-Mar-17 02:05 184 9.4
2019-Mar-17 01:59 216 8.9
2019-Mar-17 01:54 216 9.4
2019-Mar-17 01:49 217 9.4
2019-Mar-17 01:44 206 9.4
2019-Mar-17 01:39 204 9.4
2019-Mar-17 01:34 184 9.4
2019-Mar-17 01:29 247 9.4
2019-Mar-17 01:24 061 9.4
2019-Mar-17 01:19 116 9.4
2019-Mar-17 01:14 211 9.4
2019-Mar-17 01:09 208 9.4
2019-Mar-17 01:04 167 0 gusting 4 9.4